• In Lithuania
  • List of Countries
  • For 7 days
  • Water Temperature
  • Satellite Maps
  • Weather Map
  • Weather Widgets
  • user-avatar
    Login

    Hourly Weather Olginskaya

    Today, 24 September, Monday

    Time Temperature Precipitation Wind Pressure Humidity
    00:00 +17°C° 0 mm 4 mps 762 mmHg 69%
    01:00 +15°C° 0 mm 4 mps 763 mmHg 70%
    02:00 +14°C° 0 mm 3 mps 763 mmHg 71%
    03:00 +14°C° 0 mm 2 mps 763 mmHg 72%
    04:00 +13°C° 0 mm 2 mps 763 mmHg 73%
    05:00 +13°C° 0 mm 2 mps 763 mmHg 74%
    06:00 +12°C° 0 mm 1 mps 764 mmHg 75%
    07:00 +14°C° 0 mm 1 mps 764 mmHg 68%
    08:00 +15°C° 0 mm 1 mps 764 mmHg 61%
    09:00 +16°C° 0 mm 1 mps 763 mmHg 53%
    10:00 +18°C° 0 mm 2 mps 763 mmHg 46%
    11:00 +19°C° 0 mm 2 mps 763 mmHg 40%
    12:00 +21°C° 0 mm 3 mps 763 mmHg 33%
    13:00 +22°C° 0 mm 3 mps 762 mmHg 32%
    14:00 +24°C° 0 mm 3 mps 761 mmHg 30%
    15:00 +25°C° 0 mm 4 mps 761 mmHg 29%
    16:00 +24°C° 0 mm 3 mps 760 mmHg 35%
    17:00 +24°C° 0 mm 3 mps 760 mmHg 40%
    18:00 +23°C° 0 mm 2 mps 759 mmHg 46%
    19:00 +22°C° 0 mm 3 mps 759 mmHg 52%
    20:00 +21°C° 0 mm 3 mps 758 mmHg 59%
    21:00 +21°C° 0 mm 3 mps 758 mmHg 65%
    22:00 +21°C° 0 mm 3 mps 758 mmHg 68%
    23:00 +21°C° 0 mm 4 mps 757 mmHg 71%

    Tomorrow, 25 September, Tuesday

    Time Temperature Precipitation Wind Pressure Humidity
    00:00 +21°C° 0 mm 4 mps 757 mmHg 74%
    01:00 +20°C° 0 mm 4 mps 757 mmHg 77%
    02:00 +20°C° 0 mm 4 mps 757 mmHg 79%
    03:00 +20°C° 0 mm 4 mps 756 mmHg 82%
    04:00 +20°C° 0 mm 4 mps 756 mmHg 82%
    05:00 +20°C° 0 mm 5 mps 756 mmHg 83%
    06:00 +19°C° 0 mm 5 mps 756 mmHg 84%
    07:00 +19°C° 0.2 mm 5 mps 757 mmHg 81%
    08:00 +17°C° 0.2 mm 6 mps 757 mmHg 79%
    09:00 +17°C° 0.2 mm 6 mps 758 mmHg 76%
    10:00 +16°C° 0.7 mm 6 mps 758 mmHg 75%
    11:00 +15°C° 0.7 mm 5 mps 759 mmHg 74%
    12:00 +14°C° 0.7 mm 5 mps 759 mmHg 73%
    13:00 +14°C° 0.6 mm 4 mps 760 mmHg 73%
    14:00 +14°C° 0.6 mm 4 mps 760 mmHg 72%
    15:00 +13°C° 0.6 mm 4 mps 761 mmHg 72%
    16:00 +13°C° 0.3 mm 4 mps 761 mmHg 71%
    17:00 +13°C° 0.3 mm 3 mps 762 mmHg 71%
    18:00 +13°C° 0.3 mm 3 mps 762 mmHg 70%
    19:00 +13°C° 0.1 mm 4 mps 762 mmHg 70%
    20:00 +13°C° 0.1 mm 4 mps 763 mmHg 71%
    21:00 +13°C° 0.1 mm 4 mps 763 mmHg 71%
    22:00 +12°C° 0 mm 4 mps 764 mmHg 72%
    23:00 +12°C° 0 mm 3 mps 764 mmHg 72%

    Day after tomorrow, 26 September, Wednesday

    Time Temperature Precipitation Wind Pressure Humidity
    00:00 +11°C° 0 mm 3 mps 764 mmHg 73%
    01:00 +11°C° 0 mm 3 mps 764 mmHg 74%
    02:00 +11°C° 0 mm 3 mps 765 mmHg 74%
    03:00 +10°C° 0 mm 3 mps 765 mmHg 75%
    04:00 +10°C° 0 mm 3 mps 765 mmHg 77%
    05:00 +9°C° 0 mm 3 mps 766 mmHg 79%
    06:00 +9°C° 0 mm 3 mps 766 mmHg 80%
    07:00 +10°C° 0 mm 3 mps 767 mmHg 75%
    08:00 +11°C° 0 mm 3 mps 767 mmHg 69%
    09:00 +13°C° 0 mm 3 mps 768 mmHg 63%
    10:00 +14°C° 0 mm 3 mps 768 mmHg 57%
    11:00 +16°C° 0 mm 3 mps 768 mmHg 52%
    12:00 +17°C° 0 mm 3 mps 768 mmHg 46%
    13:00 +17°C° 0 mm 3 mps 768 mmHg 44%
    14:00 +17°C° 0 mm 3 mps 768 mmHg 42%
    15:00 +17°C° 0 mm 3 mps 768 mmHg 41%
    16:00 +17°C° 0 mm 2 mps 769 mmHg 41%
    17:00 +16°C° 0 mm 2 mps 769 mmHg 41%
    18:00 +16°C° 0 mm 2 mps 769 mmHg 41%
    19:00 +15°C° 0 mm 2 mps 769 mmHg 42%
    20:00 +15°C° 0 mm 2 mps 770 mmHg 42%
    21:00 +14°C° 0 mm 2 mps 770 mmHg 43%
    22:00 +14°C° 0 mm 2 mps 770 mmHg 45%
    23:00 +13°C° 0 mm 2 mps 770 mmHg 47%

    27 September, Thursday

    Time Temperature Precipitation Wind Pressure Humidity
    00:00 +11°C° 0 mm 3 mps 770 mmHg 49%
    01:00 +11°C° 0 mm 3 mps 770 mmHg 51%
    02:00 +10°C° 0 mm 2 mps 771 mmHg 53%
    03:00 +9°C° 0 mm 2 mps 771 mmHg 56%
    04:00 +9°C° 0 mm 2 mps 771 mmHg 57%
    05:00 +10°C° 0 mm 1 mps 770 mmHg 59%
    06:00 +9°C° 0 mm 1 mps 770 mmHg 60%
    07:00 +11°C° 0 mm 1 mps 771 mmHg 55%
    08:00 +12°C° 0 mm 1 mps 771 mmHg 50%
    09:00 +13°C° 0 mm 1 mps 771 mmHg 46%
    10:00 +15°C° 0 mm 2 mps 770 mmHg 41%
    11:00 +16°C° 0 mm 3 mps 770 mmHg 37%
    12:00 +17°C° 0 mm 4 mps 770 mmHg 32%
    13:00 +17°C° 0 mm 4 mps 769 mmHg 31%
    14:00 +17°C° 0 mm 4 mps 769 mmHg 30%
    15:00 +17°C° 0 mm 5 mps 768 mmHg 29%
    16:00 +17°C° 0 mm 4 mps 768 mmHg 32%
    17:00 +15°C° 0 mm 4 mps 768 mmHg 35%
    18:00 +14°C° 0 mm 4 mps 768 mmHg 38%
    19:00 +13°C° 0 mm 3 mps 768 mmHg 41%
    20:00 +13°C° 0 mm 3 mps 768 mmHg 44%
    21:00 +12°C° 0 mm 3 mps 768 mmHg 47%
    22:00 +12°C° 0 mm 3 mps 768 mmHg 48%
    23:00 +11°C° 0 mm 3 mps 767 mmHg 50%

    28 September, Friday

    Time Temperature Precipitation Wind Pressure Humidity
    00:00 +11°C° 0 mm 3 mps 767 mmHg 51%
    01:00 +11°C° 0 mm 3 mps 767 mmHg 51%
    02:00 +11°C° 0 mm 3 mps 767 mmHg 50%
    03:00 +11°C° 0 mm 3 mps 766 mmHg 50%
    04:00 +11°C° 0 mm 3 mps 766 mmHg 51%
    05:00 +11°C° 0 mm 3 mps 766 mmHg 52%
    06:00 +11°C° 0 mm 3 mps 766 mmHg 53%
    07:00 +12°C° 0 mm 3 mps 766 mmHg 50%
    08:00 +14°C° 0 mm 4 mps 766 mmHg 46%
    09:00 +15°C° 0 mm 4 mps 766 mmHg 43%
    10:00 +18°C° 0 mm 4 mps 765 mmHg 41%
    11:00 +19°C° 0 mm 4 mps 765 mmHg 39%
    12:00 +21°C° 0 mm 4 mps 765 mmHg 37%
    13:00 +21°C° 0 mm 4 mps 764 mmHg 37%
    14:00 +21°C° 0 mm 4 mps 764 mmHg 37%
    15:00 +22°C° 0 mm 4 mps 763 mmHg 38%
    16:00 +21°C° 0 mm 4 mps 763 mmHg 41%
    17:00 +20°C° 0 mm 3 mps 763 mmHg 45%
    18:00 +18°C° 0 mm 3 mps 763 mmHg 48%
    19:00 +18°C° 0 mm 2 mps 763 mmHg 51%
    20:00 +17°C° 0 mm 2 mps 763 mmHg 55%
    21:00 +16°C° 0 mm 2 mps 763 mmHg 58%
    22:00 +16°C° 0 mm 2 mps 763 mmHg 60%
    23:00 +15°C° 0 mm 2 mps 763 mmHg 63%

    29 September, Saturday

    Time Temperature Precipitation Wind Pressure Humidity
    00:00 +15°C° 0 mm 2 mps 762 mmHg 66%
    01:00 +15°C° 0 mm 1 mps 762 mmHg 68%
    02:00 +14°C° 0 mm 1 mps 762 mmHg 70%
    03:00 +14°C° 0 mm 1 mps 762 mmHg 72%
    04:00 +14°C° 0 mm 1 mps 762 mmHg 73%
    05:00 +13°C° 0 mm 0 mps 762 mmHg 75%
    06:00 +12°C° 0 mm 0 mps 762 mmHg 76%
    07:00 +15°C° 0 mm 1 mps 762 mmHg 70%
    08:00 +18°C° 0 mm 1 mps 762 mmHg 63%
    09:00 +19°C° 0 mm 1 mps 762 mmHg 57%
    10:00 +21°C° 0 mm 1 mps 761 mmHg 51%
    11:00 +22°C° 0 mm 1 mps 761 mmHg 46%
    12:00 +24°C° 0 mm 1 mps 761 mmHg 40%
    13:00 +24°C° 0 mm 1 mps 760 mmHg 38%
    14:00 +25°C° 0 mm 1 mps 760 mmHg 37%
    15:00 +25°C° 0 mm 1 mps 759 mmHg 35%
    16:00 +25°C° 0 mm 1 mps 759 mmHg 37%
    17:00 +24°C° 0 mm 1 mps 759 mmHg 39%
    18:00 +23°C° 0 mm 1 mps 759 mmHg 40%
    19:00 +22°C° 0 mm 1 mps 759 mmHg 42%
    20:00 +20°C° 0 mm 2 mps 759 mmHg 44%
    21:00 +20°C° 0 mm 2 mps 759 mmHg 46%
    22:00 +19°C° 0 mm 2 mps 759 mmHg 48%
    23:00 +19°C° 0 mm 2 mps 759 mmHg 49%
    Show more